Satellite: HUBBLE
Catalog number: 20580
Epoch time:      08241.31659613
Element set:     209
Inclination:      028.4681 deg
RA of node:       212.7682 deg
Eccentricity:    0.0003749
Arg of perigee:   072.8240 deg
Mean anomaly:     287.2759 deg
Mean motion:   15.00402555 rev/day
Decay rate:       2.94e-06 rev/day^2
Epoch rev:           80582
Checksum:              292

Satellite: PO-34
Catalog number: 25520
Epoch time:      08240.83000108
Element set:      67
Inclination:      028.4585 deg
RA of node:       059.1183 deg
Eccentricity:    0.0005025
Arg of perigee:   345.1019 deg
Mean anomaly:     014.9428 deg
Mean motion:   15.17222006 rev/day
Decay rate:       3.39e-06 rev/day^2
Epoch rev:           54405
Checksum:              259

Satellite: ISS
Catalog number: 25544
Epoch time:      08241.50381381
Element set:     142
Inclination:      051.6429 deg
RA of node:       005.2860 deg
Eccentricity:    0.0006422
Arg of perigee:   054.0673 deg
Mean anomaly:     034.8176 deg
Mean motion:   15.71777722 rev/day
Decay rate:       7.94e-06 rev/day^2
Epoch rev:           55991
Checksum:              291

Satellite: CO-58
Catalog number: 28895
Epoch time:      08241.43932393
Element set:     106
Inclination:      098.0884 deg
RA of node:       133.7096 deg
Eccentricity:    0.0017710
Arg of perigee:   179.4957 deg
Mean anomaly:     180.6253 deg
Mean motion:   14.59691689 rev/day
Decay rate:        9.5e-07 rev/day^2
Epoch rev:           15102
Checksum:              344

Satellite: NCUBE2
Catalog number: 28897
Epoch time:      08241.25828563
Element set:     636
Inclination:      098.0870 deg
RA of node:       133.4569 deg
Eccentricity:    0.0016820
Arg of perigee:   182.3441 deg
Mean anomaly:     177.7666 deg
Mean motion:   14.59864485 rev/day
Decay rate:        8.1e-07 rev/day^2
Epoch rev:           14328
Checksum:              339

Satellite: FALCON
Catalog number: 30776
Epoch time:      08240.91659032
Element set:    0396
Inclination:      035.4339 deg
RA of node:       078.4546 deg
Eccentricity:    0.0002039
Arg of perigee:   295.9691 deg
Mean anomaly:     064.0815 deg
Mean motion:   15.03039872 rev/day
Decay rate:       1.65e-06 rev/day^2
Epoch rev:           08094
Checksum:              310

Satellite: MAST
Catalog number: 31126
Epoch time:      08240.63196163
Element set:    0407
Inclination:      098.0335 deg
RA of node:       302.1902 deg
Eccentricity:    0.0095855
Arg of perigee:   110.3704 deg
Mean anomaly:     250.7834 deg
Mean motion:   14.53441861 rev/day
Decay rate:       -5.2e-07 rev/day^2
Epoch rev:           07239
Checksum:              271

Satellite: CAPE1
Catalog number: 31130
Epoch time:      08241.41241998
Element set:     390
Inclination:      098.0340 deg
RA of node:       301.7842 deg
Eccentricity:    0.0103784
Arg of perigee:   111.1775 deg
Mean anomaly:     250.0544 deg
Mean motion:   14.51987820 rev/day
Decay rate:       1.10e-06 rev/day^2
Epoch rev:            7220
Checksum:              256

Satellite: COMPASS
Catalog number: 32787
Epoch time:      08240.78099736
Element set:    0140
Inclination:      097.9834 deg
RA of node:       300.4478 deg
Eccentricity:    0.0014905
Arg of perigee:   265.5873 deg
Mean anomaly:     094.3637 deg
Mean motion:   14.81450586 rev/day
Decay rate:       -6.9e-07 rev/day^2
Epoch rev:           01800
Checksum:              325

Satellite: AAUSAT2
Catalog number: 32788
Epoch time:      08240.97468846
Element set:    0143
Inclination:      097.9853 deg
RA of node:       300.6608 deg
Eccentricity:    0.0013881
Arg of perigee:   265.3255 deg
Mean anomaly:     094.6369 deg
Mean motion:   14.81560562 rev/day
Decay rate:      -1.10e-06 rev/day^2
Epoch rev:           01803
Checksum:              316

Satellite: DO-64
Catalog number: 32789
Epoch time:      08240.91700896
Element set:    0142
Inclination:      097.9862 deg
RA of node:       300.6278 deg
Eccentricity:    0.0014516
Arg of perigee:   263.6092 deg
Mean anomaly:     096.3466 deg
Mean motion:   14.81456243 rev/day
Decay rate:       -4.9e-07 rev/day^2
Epoch rev:           01802
Checksum:              320

Satellite: CO-66
Catalog number: 32791
Epoch time:      08240.72502512
Element set:    0140
Inclination:      097.9853 deg
RA of node:       300.4095 deg
Eccentricity:    0.0014952
Arg of perigee:   263.8232 deg
Mean anomaly:     096.1275 deg
Mean motion:   14.81305373 rev/day
Decay rate:       -9.2e-07 rev/day^2
Epoch rev:           01796
Checksum:              297

Satellite: RS-30
Catalog number: 32953
Epoch time:      08240.64354606
Element set:    0095
Inclination:      082.4972 deg
RA of node:       079.1520 deg
Eccentricity:    0.0019798
Arg of perigee:   097.7333 deg
Mean anomaly:     262.5993 deg
Mean motion:   12.42997091 rev/day
Decay rate:        1.0e-07 rev/day^2
Epoch rev:           01192
Checksum:              314

/EX




_______________________________________________
Via the Keps mailing list courtesy of AMSAT-NA
http://amsat.org/mailman/listinfo/keps

--- ViaMAIL!/WC v1.60d
 * Origin: Chowdanet (401-724-4410) telnet://chowdanet.com  (1:323/120)